Weather History for KOLM - January, 2013

Change the Weather History Date:

Thursday, January 10, 2013

  Actual Average Record
Temperature  
Mean Temperature 36 °F 40 °F  
Max Temperature 38 °F 45 °F 57 °F (1961)
Min Temperature 33 °F 34 °F 8 °F (1949)
Degree Days  
Heating Degree Days 29 26  
Month to date heating degree days 259 260  
Since 1 July heating degree days 2422 2530  
Cooling Degree Days 0 0  
Month to date cooling degree days 0 0  
Year to date cooling degree days 0 0  
Moisture  
Dew Point 33 °F    
Average Humidity 93    
Maximum Humidity 100    
Minimum Humidity 85    
Precipitation  
Precipitation 0.01 in 0.26 in 1.56 in (2006)
Month to date precipitation 2.76 2.57  
Year to date precipitation 2.76 2.57  
Sea Level Pressure  
Sea Level Pressure 30.05 in    
Wind  
Wind Speed 3 mph (SW)    
Max Wind Speed 13 mph    
Max Gust Speed 16 mph    
Visibility 5 miles    
Events      
T = Trace of Precipitation, MM = Missing Value Source: NWS Daily Summary

Daily Weather History Graph

Daily Weather History Graph

Search for Another Location

Airport or City:

Trip Planner

Search our weather history database for the weather conditions in past years. The results will help you decide how hot, cold, wet, or windy it might be!

Date:

Astronomy

Jan. 10, 2013 Rise Set
Actual Time 7:55 AM PST 4:43 PM PST
Civil Twilight 7:20 AM PST 5:18 PM PST
Nautical Twilight 6:42 AM PST 5:56 PM PST
Astronomical Twilight 6:05 AM PST 6:33 PM PST
Moon 6:39 AM PST (1/10) 3:58 PM PST (1/10)
Length of Visible Light 9h 57m
Length of Day
8h 48m
Waning Crescent, 1% of the Moon is Illuminated
Jan 10
Waning Crescent
Jan 11
New
Jan 18
First Quarter
Jan 26
Full
Feb 3
Last Quarter

Hourly Weather History & Observations

Time (PST) Temp. Windchill Dew Point Humidity Pressure Visibility Wind Dir Wind Speed Gust Speed Precip Events Conditions
12:30 AM 33.1 °F 26.9 °F 33.1 °F 100% 29.96 in 7.0 mi SW 6.9 mph - N/A   Partly Cloudy
12:54 AM 34.0 °F 26.6 °F 33.1 °F 96% 29.96 in 6.0 mi WSW 9.2 mph - N/A   Mostly Cloudy
1:20 AM 33.1 °F 26.9 °F 33.1 °F 100% 29.96 in 4.0 mi SW 6.9 mph - N/A   Overcast
1:45 AM 33.1 °F 26.1 °F 33.1 °F 100% 29.97 in 2.0 mi SSW 8.1 mph - N/A   Overcast
1:54 AM 33.1 °F 26.1 °F 32.0 °F 96% 29.98 in 1.5 mi SW 8.1 mph - N/A   Overcast
2:02 AM 33.1 °F 25.5 °F 32.0 °F 96% 29.97 in 1.2 mi SW 9.2 mph - N/A   Overcast
2:27 AM 33.8 °F 27.0 °F 32.0 °F 93% 29.97 in 1.8 mi SSW 8.1 mph - N/A   Overcast
2:36 AM 33.1 °F 24.9 °F 33.1 °F 100% 29.97 in 2.0 mi SSW 10.4 mph - N/A   Overcast
2:52 AM 33.8 °F 26.4 °F 33.8 °F 100% 29.98 in 1.5 mi SSW 9.2 mph - N/A   Overcast
2:54 AM 33.1 °F 25.5 °F 33.1 °F 100% 29.99 in 1.5 mi SSW 9.2 mph - N/A   Overcast
3:40 AM 33.1 °F 28.7 °F 33.1 °F 100% 29.99 in 1.2 mi SW 4.6 mph - N/A   Overcast
3:54 AM 33.1 °F 26.1 °F 33.1 °F 100% 29.99 in 1.5 mi SSW 8.1 mph - N/A   Overcast
4:11 AM 33.1 °F - 33.1 °F 100% 29.98 in 2.5 mi Calm Calm - N/A   Overcast
4:35 AM 33.1 °F 28.7 °F 32.0 °F 96% 29.99 in 1.2 mi South 4.6 mph - N/A   Overcast
4:50 AM 33.8 °F 28.6 °F 33.8 °F 100% 29.99 in 1.5 mi South 5.8 mph - N/A   Overcast
4:54 AM 33.1 °F 28.7 °F 33.1 °F 100% 30.01 in 1.8 mi South 4.6 mph - N/A   Overcast
5:07 AM 33.1 °F 26.9 °F 33.1 °F 100% 30.00 in 2.5 mi South 6.9 mph - N/A   Overcast
5:16 AM 33.1 °F 30.0 °F 33.1 °F 100% 30.00 in 3.0 mi SW 3.5 mph - N/A   Overcast
5:54 AM 33.1 °F 30.0 °F 33.1 °F 100% 30.02 in 5.0 mi SSW 3.5 mph - N/A   Overcast
6:30 AM 33.1 °F 30.0 °F 33.1 °F 100% 30.03 in 5.0 mi WNW 3.5 mph - N/A   Overcast
6:54 AM 33.1 °F 30.0 °F 33.1 °F 100% 30.04 in 4.0 mi West 3.5 mph - N/A   Overcast
7:36 AM 34.0 °F - 33.1 °F 96% 30.05 in 5.0 mi Calm Calm - N/A   Overcast
7:54 AM 34.0 °F - 33.1 °F 96% 30.07 in 4.0 mi Calm Calm - N/A   Overcast
8:54 AM 34.0 °F 31.0 °F 33.1 °F 96% 30.09 in 3.0 mi WSW 3.5 mph - 0.00 in   Overcast
9:54 AM 35.1 °F 32.2 °F 33.1 °F 92% 30.09 in 6.0 mi South 3.5 mph - N/A   Overcast
10:54 AM 34.0 °F 31.0 °F 33.1 °F 96% 30.09 in 6.0 mi SW 3.5 mph - N/A   Overcast
11:54 AM 35.1 °F 32.2 °F 34.0 °F 96% 30.09 in 5.0 mi ENE 3.5 mph - N/A   Overcast
12:54 PM 36.0 °F - 33.1 °F 89% 30.08 in 7.0 mi Calm Calm - N/A   Overcast
1:54 PM 37.0 °F - 34.0 °F 89% 30.09 in 9.0 mi Calm Calm - N/A   Overcast
2:54 PM 37.0 °F - 34.0 °F 89% 30.09 in 9.0 mi Calm Calm - N/A   Overcast
3:54 PM 37.0 °F 34.5 °F 34.0 °F 89% 30.10 in 8.0 mi WSW 3.5 mph - N/A   Overcast
4:54 PM 37.0 °F - 35.1 °F 93% 30.10 in 10.0 mi Calm Calm - N/A   Overcast
5:33 PM 37.0 °F 33.3 °F 35.1 °F 93% 30.09 in 10.0 mi NNW 4.6 mph - N/A   Overcast
5:54 PM 37.0 °F - 35.1 °F 93% 30.10 in 8.0 mi Calm Calm - 0.00 in   Overcast
6:54 PM 36.0 °F 33.3 °F 34.0 °F 93% 30.11 in 9.0 mi NE 3.5 mph - N/A   Overcast
7:37 PM 35.1 °F - 33.1 °F 92% 30.10 in 10.0 mi Calm Calm - 0.01 in   Overcast
7:54 PM 34.0 °F - 33.1 °F 96% 30.11 in 10.0 mi Calm Calm - 0.01 in   Overcast
8:54 PM 33.8 °F - 33.8 °F 100% 30.10 in 8.0 mi Calm Calm - N/A   Overcast
9:24 PM 33.1 °F - 32.0 °F 96% 30.11 in 6.0 mi Calm Calm - N/A   Overcast
9:39 PM 33.1 °F - 32.0 °F 96% 30.11 in 6.0 mi Calm Calm - N/A   Overcast
9:54 PM 33.1 °F 30.0 °F 32.0 °F 96% 30.12 in 8.0 mi WNW 3.5 mph - N/A   Overcast
10:54 PM 33.1 °F 30.0 °F 32.0 °F 96% 30.12 in 4.0 mi WSW 3.5 mph - 0.00 in   Overcast
11:54 PM 33.1 °F - 33.1 °F 100% 30.13 in 3.0 mi Calm Calm - N/A   Overcast